User: anonymous   Login
Location: Bucharest
(44.4268°N, 26.1025°E)
Time: 16:59:49
(UTC+03:00)
Language:

CAS-6 - Orbit

View from above orbital plane
View from above orbital plane
View from above satellite
View from above satellite

Ground track
Ground track

The orbit data is extracted from the following two-line orbital elements,

1 44881U 19093C   22183.16498038  .00000359  00000-0  52155-4 0  9991
2 44881  97.8932 262.1630 0015957 134.3972 225.8546 14.81743011136957
Epoch (UTC): 02 July 2022 03:57:34
Eccentricity: 0.0015957
inclination: 97.8932°
perigee height: 612 km
apogee height: 635 km
right ascension of ascending node: 262.1630°
argument of perigee: 134.3972°
revolutions per day: 14.81743011
mean anomaly at epoch: 225.8546°
orbit number at epoch: 13695

The dashed part of the orbit path shows where the satellite is in the earth's shadow,  

DLR